Jackson, MI

2:18 PM EST on February 10, 2016 (GMT -0500)
Jackson County-Reynolds

Weather History for KJXN - December, 2012

Change the Weather History Date:

Sunday, December 16, 2012

  Actual Average Record
Temperature  
Mean Temperature 46 °F 28 °F  
Max Temperature 51 °F 34 °F 63 °F (1984)
Min Temperature 40 °F 21 °F -7 °F (1951)
Degree Days  
Heating Degree Days 19 37  
Month to date heating degree days 409 555  
Since 1 July heating degree days 1847 1959  
Cooling Degree Days 0 0  
Month to date cooling degree days 0 0  
Year to date cooling degree days 873 592  
Moisture  
Dew Point 43 °F    
Average Humidity 85    
Maximum Humidity 96    
Minimum Humidity 74    
Precipitation  
Precipitation 0.01 in 0.06 in 1.24 in (2000)
Month to date precipitation 1.02 1.00  
Year to date precipitation 24.32 30.63  
Sea Level Pressure  
Sea Level Pressure 29.63 in    
Wind  
Wind Speed 8 mph (SW)    
Max Wind Speed 18 mph    
Max Gust Speed 24 mph    
Visibility 8 miles    
Events      
T = Trace of Precipitation, MM = Missing Value Source: NWS Daily Summary

Daily Weather History Graph

Daily Weather History Graph

Search for Another Location

Airport or City:

Trip Planner

Search our weather history database for the weather conditions in past years. The results will help you decide how hot, cold, wet, or windy it might be!

Date:

Astronomy

Dec. 16, 2012 Rise Set
Actual Time 8:00 AM EST 5:06 PM EST
Civil Twilight 7:28 AM EST 5:38 PM EST
Nautical Twilight 6:53 AM EST 6:14 PM EST
Astronomical Twilight 6:19 AM EST 6:48 PM EST
Moon 10:30 AM EST (12/16) 9:23 PM EST (12/16)
Length of Visible Light 10h 09m
Length of Day
9h 06m
Waxing Crescent, 16% of the Moon is Illuminated
Dec 16
Waxing Crescent
Dec 20
First Quarter
Dec 28
Full
Jan 4
Last Quarter
Jan 11
New

Hourly Weather History & Observations

Time (EST) Temp. Windchill Dew Point Humidity Pressure Visibility Wind Dir Wind Speed Gust Speed Precip Events Conditions
12:12 AM 46.4 °F 41.9 °F 44.6 °F 93% 29.65 in 5.0 mi South 9.2 mph - 0.00 in   Overcast
12:23 AM 46.4 °F 41.9 °F 44.6 °F 93% 29.65 in 5.0 mi South 9.2 mph - 0.00 in   Overcast
12:35 AM 46.4 °F 41.1 °F 44.6 °F 93% 29.64 in 7.0 mi South 11.5 mph - 0.00 in   Overcast
12:56 AM 46.9 °F - 45.0 °F 93% 29.65 in 8.0 mi South 9.2 mph - 0.00 in   Overcast
1:25 AM 48.2 °F - 44.6 °F 87% 29.63 in 9.0 mi SSW 8.1 mph - N/A   Overcast
1:43 AM 48.2 °F - 44.6 °F 87% 29.62 in 9.0 mi South 5.8 mph - N/A   Overcast
1:54 AM 48.2 °F - 44.6 °F 87% 29.62 in 8.0 mi South 8.1 mph - N/A   Overcast
1:56 AM 48.0 °F - 45.0 °F 89% 29.64 in 8.0 mi South 9.2 mph - N/A   Overcast
2:07 AM 48.2 °F - 46.4 °F 93% 29.62 in 8.0 mi South 9.2 mph - N/A   Overcast
2:56 AM 48.9 °F - 46.0 °F 90% 29.64 in 8.0 mi South 9.2 mph - N/A   Overcast
3:21 AM 48.2 °F - 46.4 °F 93% 29.62 in 8.0 mi SSW 8.1 mph - N/A   Overcast
3:56 AM 50.0 °F - 46.0 °F 86% 29.63 in 9.0 mi SW 10.4 mph - N/A   Overcast
4:56 AM 48.9 °F - 46.0 °F 90% 29.63 in 10.0 mi SW 5.8 mph - N/A   Overcast
5:41 AM 48.2 °F - 46.4 °F 93% 29.61 in 9.0 mi SW 5.8 mph - N/A   Overcast
5:56 AM 48.9 °F - 46.0 °F 90% 29.62 in 8.0 mi SSW 5.8 mph - N/A   Overcast
6:28 AM 48.2 °F - 46.4 °F 93% 29.61 in 9.0 mi SSW 6.9 mph - N/A   Overcast
6:56 AM 48.9 °F - 46.0 °F 90% 29.63 in 10.0 mi SSW 6.9 mph - N/A   Overcast
7:48 AM 48.2 °F - 46.4 °F 93% 29.62 in 10.0 mi South 5.8 mph - N/A   Overcast
7:56 AM 48.9 °F - 46.0 °F 90% 29.63 in 10.0 mi South 6.9 mph - N/A   Overcast
8:09 AM 48.2 °F - 46.4 °F 93% 29.61 in 8.0 mi South 8.1 mph - N/A   Overcast
8:56 AM 50.0 °F - 46.9 °F 89% 29.62 in 7.0 mi SSW 6.9 mph - N/A   Overcast
9:07 AM 50.0 °F - 46.4 °F 87% 29.61 in 7.0 mi SSW 9.2 mph - N/A   Overcast
9:16 AM 50.0 °F - 46.4 °F 87% 29.61 in 8.0 mi SSW 9.2 mph - N/A   Overcast
9:24 AM 50.0 °F - 46.4 °F 87% 29.61 in 8.0 mi SSW 9.2 mph - N/A   Overcast
9:36 AM 50.0 °F - 46.4 °F 87% 29.62 in 9.0 mi SSW 11.5 mph - N/A   Overcast
9:56 AM 50.0 °F - 46.0 °F 86% 29.63 in 10.0 mi SSW 9.2 mph - N/A   Overcast
10:56 AM 50.0 °F - 45.0 °F 83% 29.64 in 10.0 mi WSW 11.5 mph 19.6 mph N/A   Overcast
11:21 AM 50.0 °F - 44.6 °F 82% 29.63 in 10.0 mi SW 15.0 mph 20.7 mph N/A   Overcast
11:45 AM 50.0 °F - 44.6 °F 82% 29.62 in 10.0 mi SW 12.7 mph - N/A   Overcast
11:56 AM 50.0 °F - 44.1 °F 80% 29.63 in 10.0 mi WSW 12.7 mph - N/A   Overcast
12:04 PM 50.0 °F - 44.6 °F 82% 29.62 in 10.0 mi WSW 13.8 mph - N/A   Overcast
12:56 PM 50.0 °F - 43.0 °F 77% 29.62 in 10.0 mi SW 13.8 mph - N/A   Overcast
1:05 PM 50.0 °F - 42.8 °F 76% 29.61 in 10.0 mi WSW 10.4 mph - N/A   Overcast
1:56 PM 50.0 °F - 42.1 °F 74% 29.61 in 10.0 mi SW 11.5 mph - N/A   Overcast
2:16 PM 48.2 °F - 42.8 °F 82% 29.59 in 10.0 mi SW 10.4 mph 20.7 mph N/A   Overcast
2:56 PM 46.9 °F - 43.0 °F 86% 29.60 in 10.0 mi WSW 6.9 mph - N/A   Overcast
3:56 PM 46.0 °F 41.9 °F 43.0 °F 89% 29.60 in 10.0 mi WSW 8.1 mph - 0.01 in   Overcast
4:17 PM 46.4 °F 42.9 °F 42.8 °F 87% 29.60 in 10.0 mi WSW 6.9 mph - N/A   Overcast
4:24 PM 46.4 °F 43.5 °F 42.8 °F 87% 29.59 in 10.0 mi SW 5.8 mph - N/A   Overcast
4:31 PM 46.4 °F 42.9 °F 42.8 °F 87% 29.60 in 10.0 mi SW 6.9 mph - N/A   Overcast
4:56 PM 46.0 °F 43.1 °F 43.0 °F 89% 29.62 in 9.0 mi West 5.8 mph - N/A   Overcast
5:03 PM 46.4 °F 45.2 °F 42.8 °F 87% 29.62 in 10.0 mi WNW 3.5 mph - N/A   Overcast
5:41 PM 44.6 °F 41.4 °F 41.0 °F 87% 29.63 in 10.0 mi West 5.8 mph - N/A   Overcast
5:56 PM 44.1 °F 40.8 °F 41.0 °F 89% 29.64 in 10.0 mi West 5.8 mph - N/A   Overcast
6:36 PM 42.8 °F 40.1 °F 41.0 °F 93% 29.62 in 6.0 mi West 4.6 mph - N/A   Overcast
6:56 PM 43.0 °F 40.3 °F 41.0 °F 93% 29.64 in 7.0 mi West 4.6 mph - N/A   Overcast
7:19 PM 42.8 °F 40.1 °F 39.2 °F 87% 29.63 in 7.0 mi West 4.6 mph - N/A   Overcast
7:34 PM 42.8 °F 39.3 °F 39.2 °F 87% 29.64 in 5.0 mi West 5.8 mph - N/A   Overcast
7:52 PM 42.8 °F 40.1 °F 39.2 °F 87% 29.64 in 6.0 mi West 4.6 mph - N/A   Overcast
7:56 PM 42.1 °F 37.7 °F 39.9 °F 92% 29.66 in 6.0 mi West 6.9 mph - N/A   Overcast
8:34 PM 42.8 °F 38.6 °F 39.2 °F 87% 29.65 in 6.0 mi West 6.9 mph - N/A   Overcast
8:49 PM 42.8 °F 38.0 °F 39.2 °F 87% 29.65 in 7.0 mi WSW 8.1 mph - N/A   Overcast
8:56 PM 42.1 °F 37.1 °F 39.0 °F 89% 29.66 in 6.0 mi WSW 8.1 mph - N/A   Overcast
9:07 PM 41.0 °F 36.4 °F 39.2 °F 93% 29.65 in 7.0 mi West 6.9 mph - N/A   Overcast
9:21 PM 41.0 °F 36.4 °F 39.2 °F 93% 29.65 in 8.0 mi West 6.9 mph - N/A   Overcast
9:32 PM 41.0 °F 38.0 °F 39.2 °F 93% 29.65 in 7.0 mi West 4.6 mph - N/A   Overcast
9:56 PM 41.0 °F 37.1 °F 37.9 °F 89% 29.68 in 7.0 mi West 5.8 mph - N/A   Overcast
10:13 PM 41.0 °F 37.1 °F 37.4 °F 87% 29.66 in 9.0 mi West 5.8 mph - N/A   Overcast
10:56 PM 39.9 °F 35.8 °F 37.0 °F 89% 29.69 in 10.0 mi WSW 5.8 mph - N/A   Overcast
11:56 PM 39.9 °F 35.1 °F 37.0 °F 89% 29.69 in 10.0 mi WSW 6.9 mph - N/A   Overcast